Printer-friendly version

IAU Minor Planet Center

Minor Planet Center

MPEC 2006-Y15 : 2006 YC

The following Minor Planet Electronic Circular may be linked-to from your own Web pages, but must not otherwise be redistributed electronically.


Read MPEC 2006-Y14 Read MPEC 2006-Y16


M.P.E.C. 2006-Y15                                Issued 2006 Dec. 17, 15:17 UT

     The Minor Planet Electronic Circulars contain information on unusual
         minor planets and routine data on comets.  They are published
   on behalf of Commission 20 of the International Astronomical Union by the
          Minor Planet Center, Smithsonian Astrophysical Observatory,
                          Cambridge, MA 02138, U.S.A.

             Prepared using the Tamkin Foundation Computer Network

                              MPC@CFA.HARVARD.EDU
          URL http://cfa-www.harvard.edu/iau/mpc.html  ISSN 1523-6714

                                    2006 YC

Observations:
     K06Y00C* C2006 12 16.41622 10 31 38.56 -04 08 53.4          20.0 V EY015703
     K06Y00C  C2006 12 16.42628 10 31 38.53 -04 08 50.4          19.2 V EY015703
     K06Y00C  C2006 12 16.43638 10 31 38.67 -04 08 47.5          19.5 V EY015703
     K06Y00C  C2006 12 16.45094 10 31 38.74 -04 08 43.4          19.6 V EY015703
     K06Y00C  C2006 12 16.48765 10 31 38.94 -04 08 33.2          19.4 V EY015G96
     K06Y00C  C2006 12 16.49284 10 31 38.95 -04 08 32.5                 EY015G96
     K06Y00C  C2006 12 16.49794 10 31 38.95 -04 08 30.1                 EY015G96
     K06Y00C  C2006 12 16.50318 10 31 38.96 -04 08 28.8                 EY015G96
     K06Y00C  C2006 12 16.54177 10 31 39.13 -04 08 17.7          19.5 V EY015G96
     K06Y00C  C2006 12 16.54265 10 31 39.12 -04 08 17.2                 EY015G96
     K06Y00C  C2006 12 16.54353 10 31 39.12 -04 08 17.4                 EY015G96
     K06Y00C  C2006 12 16.54442 10 31 39.12 -04 08 16.7                 EY015G96
     K06Y00C  C2006 12 17.16901 10 31 42.12 -04 05 19.8                 EY015J95
     K06Y00C  C2006 12 17.21003 10 31 42.25 -04 05 07.1          20.1 R EY015J95

Observer details:
703 Catalina Sky Survey.  Observer A. R. Gibbs.  Measurers E. C. Beshore,
    E. J. Christensen, G. J. Garradd, A. R. Gibbs, A. D. Grauer, R. E. Hill,
    R. A. Kowalski, S. M. Larson, R. H. McNaught.  0.68-m Schmidt + CCD.
G96 Mt. Lemmon Survey.  Observer E. J. Christensen.  Measurers E. C. Beshore,
    E. J. Christensen, G. J. Garradd, A. R. Gibbs, A. D. Grauer, R. E. Hill,
    R. A. Kowalski, S. M. Larson, R. H. McNaught.  1.5-m reflector + CCD.
J95 Great Shefford.  Observer P. Birtwhistle.  0.40-m f/6.0 Schmidt-Cassegrain
    + CCD.

Orbital elements:
2006 YC
Epoch 2006 Dec. 11.0 TT = JDT 2454080.5                 MPC
M 182.70978              (2000.0)            P               Q
n   0.30568045     Peri.  165.09944     +0.75222668     +0.47939312
a   2.1825168      Node   148.23389     -0.65740884     +0.59224527
e   0.3420712      Incl.   59.16489     -0.04436927     -0.64763244
P   3.22           H   14.3           G   0.15
From 14 observations 2006 Dec. 16-17.  E-assumed.

Ephemeris:
2006 YC                  a,e,i = 2.18, 0.34, 59                  q = 1.4359
Date    TT    R. A. (2000) Decl.     Delta      r     Elong.  Phase     V
2006 12 11    10 30.84   -04 31.0    2.634    2.929    97.4    19.5    19.7
2006 12 21    10 31.81   -03 45.1    2.478    2.927   107.4    18.7    19.6
2006 12 31    10 30.41   -02 34.8    2.328    2.924   118.2    17.2    19.4
2007 01 10    10 26.45   -00 56.4    2.191    2.920   129.8    15.0    19.2
2007 01 20    10 19.86   +01 12.9    2.074    2.915   142.2    11.9    18.9
2007 01 30    10 10.80   +03 52.5    1.984    2.909   155.4     8.1    18.7
2007 02 09    09 59.81   +06 56.6    1.927    2.901   169.0     3.7    18.4
2007 02 19    09 47.74   +10 14.5    1.907    2.892   174.9     1.7    18.2
2007 03 01    09 35.71   +13 32.2    1.925    2.883   161.9     6.1    18.5
2007 03 11    09 24.84   +16 36.3    1.978    2.871   148.4    10.4    18.7
2007 03 21    09 16.05   +19 17.8    2.062    2.859   135.5    14.1    19.0
2007 03 31    09 09.92   +21 32.6    2.169    2.846   123.5    17.0    19.2
2007 04 10    09 06.66   +23 21.0    2.293    2.831   112.4    19.1    19.3
2007 04 20    09 06.21   +24 45.4    2.427    2.815   102.2    20.4    19.5
2007 04 30    09 08.38   +25 49.1    2.565    2.798    92.7    21.1    19.6
2007 05 10    09 12.86   +26 35.4    2.701    2.780    83.8    21.2    19.7
2007 05 20    09 19.36   +27 07.1    2.833    2.761    75.6    20.8    19.8
2007 05 30    09 27.58   +27 26.5    2.956    2.740    67.9    20.0    19.8
2007 06 09    09 37.27   +27 35.7    3.068    2.719    60.6    19.0    19.9

Kyle E. Smalley              (C) Copyright 2006 MPC           M.P.E.C. 2006-Y15

Read MPEC 2006-Y14 Read MPEC 2006-Y16


Our Web policy. Index to the CBAT/MPC/ICQ pages.


Valid HTML 4.01!